Location: Antoign�
(47.0844°N, 0.1131°W)
Time: 00:11:46
(UTC+00:00)

Cosmos 2360 Rocket - Pass Details

Date: 03 March 2021
Orbit: 832 x 846 km, 71.0° (Epoch: 14 April)

Event Time Altitude Azimuth Distance (km) Brightness Sun altitude
Rises 18:36:35 0° 183° (S) 3,374 5.4 -8.9°
Reaches altitude 10° 18:39:07 10° 176° (S) 2,446 4.6 -9.3°
Maximum altitude 18:44:21 42° 107° (ESE) 1,192 2.6 -10.2°
Drops below altitude 10° 18:49:38 10° 39° (NE) 2,471 4.3 -11.1°
Sets 18:52:12 0° 33° (NNE) 3,412 5.1 -11.6°
